User: anonymous
Location: Dover
(39.1580°N, 75.5250°W)
Time: 20:56:28
(UTC-04:00)
Language:

Cosmos 1437 Rocket - Orbit

View from above orbital plane
View from above orbital plane
View from above satellite
View from above satellite

Ground track
Ground track

The orbit data is extracted from the following two-line orbital elements,

1 13771U 83003B   14209.92494777  .00001803  00000-0  11989-3 0   857
2 13771 081.1578 136.4529 0029381 251.9990 107.8031 15.06351384714838
Epoch (UTC): 28 July 2014 22:11:55
Eccentricity: 0.0029381
inclination: 81.1578°
perigee height: 527 km
apogee height: 568 km
right ascension of ascending node: 136.4529°
argument of perigee: 251.9990°
revolutions per day: 15.06351384
mean anomaly at epoch: 107.8031°
orbit number at epoch: 71483

The dashed part of the orbit path shows where the satellite is in the earth's shadow,  

DLR